Terminal Aerodrome Forecast
Issued by NWS Melbourne, FL

Home | Current Version | Previous Version | Text Only | Print | Product List | Glossary On
Versions: 1 2 3 4 5 6 7 8 9 10 11 12 13 14 15 16 17 18 19 20 21 22 23 24 25
000
FTUS42 KMLB 190300 AAA
TAFMCO
TAF AMD
KMCO 190305Z 1903/1924 VRB03KT P6SM SCT120 BKN250
     FM191400 05007KT P6SM SCT025 BKN090 BKN250
     FM191900 06008KT P6SM VCSH SCT040 BKN060 OVC100=

USA.gov is the U.S. government's official web portal to all federal, state and local government web resources and services.